sat.trackr.live / text

‹ back to catalog

STARLINK-33961

NORAD 64047 · 2025-102AB

PAYLOAD ACTIVE UNKNOWN

§ Identity

Operator
Country
US
Launch date
2025-05-16
Launch site
AFWTR
Launch vehicle
Mass (kg)
RCS (m²)

Purposes: comms

External: N2YO · Heavens-Above · Gunter

§ Orbital elements

Epoch: 2026-09-20T14:17:24.045216Z

Period
94.14 min
Inclination
70.0014°
Eccentricity
0.0003341
Mean motion
15.29587541 rev/d
Perigee alt
474.8 km
Apogee alt
479.3 km
Semi-major
6,855.2 km
B*
3.4476e-4
RAAN
340.7735°
Arg perigee
268.9948°
Mean anomaly
91.0845°
Rev number
7,508

§ Raw data

STARLINK-339611 64047U 25102AB  26263.59541719  .00009798  00000+0  34476-3 0  99902 64047  70.0014 340.7735 0003341 268.9948  91.0845 15.29587541 75085

JSON: /api/v1/satellites/64047 · /tle

For live sub-satellite position, see the globe view (requires WebGL).

§ Visibility from observer

Set your observer location to see the next 7 days of passes ≥ 10°. The values pass through the URL so the page stays shareable.

No JS? Fill the form by hand. The geolocation button needs JavaScript.